SCP
0 0 0 0 0 0 0 0 0 0 0 0 0 0 0 0 0 0 0 0 0 0 0 0 0 0 0 0 0 0 0 0 0 0 0 0 0 0 0 0 0 0 0 0
0 0 0 0 0 0 0 0 0 0 0 0 0 0 0 0 0 0 0 0 0 0 0 0 0 0 0 0 0 0 0 0 0 0 0 0 0 0 0 0 0 0 0 0
0 0 0 0 0 0 0 0 0 0 0 0 0 0 0 0 0 0 0 0 0 0 0 0 0 0 0 0 0 0 0 0 0 0 0 0 0 0 0 0 0 0 0 0
0 0 0 0 0 0 0 0 0 0 0 0 0 0 0 0 0 0 0 0 0 0 0 0 0 0 0 0 0 0 0 0 0 0 0 0 0 0 0 0 0 0 0 0
0 0 0 0 0 0 0 0 0 0 0 0 0 0 -0 0 0 0 0 0 0 0 0 0 0 0 0 0 0 0 0 0 0 0 0 0 0 0 0 0 0 0 0 0
0 0 0 0 0 0 0 0 0 0 0 0 0 0 -0 0 0 0 0 0 0 0 0 0 0 0 0 0 0 0 0 0 0 0 0 0 0 0 0 0 0 0 0 0
0 0 0 0 0 0 0 0 0 0 0 0 0 0 0 0 0 0 0 0 0 0 0 0 0 0 0 0 0 0 0 0 0 0 0 0 0 0 0 0 0 0 0 0
0 0 0 0 0 0 0 0 0 0 0 0 0 0 0 0 0 0 0 0 0 0 0 0 0 0 0 0 0 0 0 0 0 0 0 0 0 0 0 0 0 0 0 0
0 0 0 0 0 0 0 0 0 0 0 0 0 0 0 0 0 0 0 0 0 0 0 0 0 0 0 0 0 0 0 0 0 0 0 0 0 0 0 0 0 0 0 0
0 0 0 0 0 0 0 0 0 0 0 0 0 0 0 0 0 0 0 0 0 0 0 0 0 0 0 0 0 0 0 0 0 0 0 0 0 0 0 0 0 0 0 0
0 0 0 0 0 0 0 0 0 0 0 0 0 0 0 0 0 0 0 0 0 0 0 0 0 0 0 0 0 0 0 0 0 0 0 0 0 0 0 0 0 0 0 0
0 0 0 0 0 0 0 0 0 0 0 0 0 0 0 0 0 0 0 0 0 0 0 0 0 0 0 0 0 0 0 0 0 0 0 0 0 0 0 0 0 0 0 0
0 0 0 0 0 0 0 0 0 0 0 0 0 0 0 0 0 0 0 0 0 0 0 0 0 0 0 0 0 0 0 0 0 0 0 0 0 0 0 0 0 0 0 0
0 0 0 0 0 0 0 0 0 0 0 0 0 0 0 0 0 0 0 0 0 0 0 0 0 0 0 0 0 0 0 0 0 0 0 0 0 0 0 0 0 0 0 0
0 0 0 0 0 0 0 0 0 0 0 0 0 0 0 0 0 0 0 0 0 0 0 0 0 0 0 0 0 0 0 0 0 0 0 0 0 0 0 0 0 0 0 0
0 0 0 0 0 0 0 0 0 0 0 0 0 0 0 0 0 0 0 0 0 0 0 0 0 0 0 0 0 0 0 0 0 0 0 0 0 0 0 0 0 0 0 0
0 0 0 0 0 0 0 0 0 0 0 0 0 0 0 0 0 0 0 0 0 0 0 0 0 0 0 0 0 0 0 0 0 0 0 0 0 0 0 0 0 0 0 0
0 0 0 0 0 0 0 0 0 0 0 0 0 0 0 0 0 0 0 0 0 0 0 0 0 0 0 0 0 0 0 0 0 0 0 0 0 0 0 0 0 0 0 0
0 0 0 0 0 0 0 0 0 0 0 0 0 0 0 0 0 0 0 0 0 0 0 0 0 0 0 0 0 0 0 0 0 0 0 0 0 0 0 0 0 0 0 0
0 0 0 0 0 0 0 0 0 0 0 0 0 0 0 0 0 0 0 0 0 0 0 0 0 0 0 0 0 0 0 0 0 0 0 0 0 0 0 0 0 0 0 0
0 0 0 0 0 0 0 0 0 0 0 0 0 0 0 0 0 0 0 0 0 0 0 0 0 0 0 0 0 0 0 0 0 0 0 0 0 0 0 0 0 0 0 0
0 0 0 0 0 0 0 0 0 0 0 0 0 0 0 0 0 0 0 0 0 0 0 0 0 0 0 0 0 0 0 0 0 0 0 0 0 0 0 0 0 0 0 0
0 0 0 0 0 0 0 0 0 0 0 0 0 0 0 0 0 0 0 0 0 0 0 0 0 0 0 0 0 0 0 0 0 0 0 0 0 0 0 0 0 0 0 0
0 0 0 0 0 0 0 0 0 0 0 0 0 0 0 0 0 0 0 0 0 0 0 0 0 0 0 0 0 0 0 0 0 0 0 0 0 0 0 0 0 0 0 -0
0 0 0 0 0 0 0 0 0 0 0 0 0 0 0 0 0 0 0 0 0 0 0 0 0 0 0 0 0 0 0 0 0 0 0 0 0 0 0 0 0 0 -0 -0
0 0 0 0 0 0 0 0 0 0 0 0 0 0 0 0 0 0 0 0 0 0 0 0 0 0 0 0 0 0 0 0 0 0 0 0 0 0 0 0 0 0 0 0
Wind_Speed_500mb
26 10 14 19 18 7 3 16 12 10 4 2 13 17 19 30 26 30 30 28 33 33 35 37 40 45 49 50 50 50 51 48 50 58 60 61 60 58 58 57 49 46 42 37
8 14 18 18 16 10 8 9 5 8 10 6 11 17 19 24 29 44 38 37 40 33 33 33 40 45 48 57 58 57 57 57 58 56 61 62 62 63 63 58 55 53 48 45
14 15 23 16 10 15 10 12 7 10 8 4 5 13 19 22 52 51 49 47 43 40 37 45 44 41 43 47 53 55 60 61 65 63 59 59 57 61 61 65 65 64 60 58
13 6 19 15 12 10 12 10 14 16 9 5 6 9 9 11 14 18 41 46 48 45 33 30 34 35 42 47 51 55 61 64 66 66 69 67 68 67 69 66 65 64 59 61
6 14 24 17 17 21 4 15 14 9 6 7 6 2 12 7 9 15 36 46 42 40 45 49 54 53 57 57 57 62 64 70 71 68 74 73 65 63 56 54 60 64 60 59
7 6 7 7 10 15 16 15 15 8 5 3 15 12 9 12 15 8 3 21 32 35 38 41 42 42 46 47 45 47 55 61 62 70 67 71 63 60 59 60 54 52 51 51
10 4 6 10 16 7 9 12 4 2 1 10 8 9 20 8 7 10 14 23 28 28 28 26 24 23 25 25 27 32 38 46 51 57 70 57 51 51 54 57 61 50 44 43
14 9 16 10 9 17 18 16 11 15 10 6 9 15 13 24 8 7 12 30 29 26 27 25 22 19 17 15 16 15 20 28 35 39 50 59 49 44 43 48 54 51 44 39
18 5 12 13 1 18 10 10 2 13 5 8 11 13 15 12 13 18 24 24 28 27 28 28 24 22 19 16 14 11 13 19 24 32 40 44 42 36 39 41 45 47 43 41
1 10 4 4 5 5 6 7 6 3 9 9 12 10 14 6 19 16 18 36 30 29 28 26 26 24 23 20 17 16 16 18 21 25 29 37 35 31 36 41 42 39 38 38
4 11 3 8 13 17 4 9 9 10 9 11 3 12 7 11 13 21 26 37 35 35 32 30 31 27 22 20 19 19 19 19 19 20 22 23 24 24 26 28 31 34 35 35
10 9 9 15 2 7 17 14 16 10 8 3 5 18 10 14 8 5 32 41 40 40 38 38 33 28 26 24 23 24 24 21 19 19 22 24 23 23 22 24 24 25 25 27
16 7 7 5 4 5 7 4 7 10 6 11 11 27 8 13 11 6 19 29 33 33 35 33 32 30 29 28 28 26 24 23 23 24 23 22 22 22 21 20 20 19 18 17
31 7 17 25 6 19 11 13 14 12 7 41 20 48 5 8 12 13 21 30 31 34 36 38 37 39 38 35 31 28 29 28 28 28 26 25 25 24 22 19 17 15 12 10
12 12 9 11 8 6 8 13 26 35 41 14 44 35 51 14 18 33 35 33 36 42 48 50 49 47 42 41 40 39 36 35 33 32 30 29 28 25 22 19 15 11 7 3
3 3 2 8 6 6 4 20 26 31 36 26 39 35 60 7 26 40 45 50 51 56 59 56 53 53 51 49 46 43 40 35 33 34 31 29 26 24 20 15 10 5 1 5
8 10 6 4 14 9 13 42 19 18 23 20 31 55 44 27 17 33 47 57 62 63 63 62 65 61 57 56 51 46 44 40 40 34 31 28 23 18 14 10 6 2 3 7
9 9 6 5 10 8 14 16 22 34 34 33 37 44 53 49 32 37 63 70 67 65 63 67 72 70 65 60 57 52 47 45 39 35 31 27 22 17 12 7 3 5 9 15
7 8 7 7 10 15 33 8 13 16 32 22 37 46 64 64 47 73 72 61 71 79 79 79 78 76 70 67 56 51 50 46 40 34 29 24 19 13 8 3 5 12 18 23
12 7 6 7 8 16 5 3 10 10 23 7 23 17 23 32 11 34 40 52 64 67 64 69 74 75 71 63 58 57 52 44 37 31 26 20 13 6 5 11 19 27 32 34
9 8 25 18 10 16 8 9 8 13 8 4 20 23 30 6 20 61 52 44 49 62 65 69 72 72 66 62 61 56 48 41 35 28 19 11 8 11 15 19 22 25 29 33
21 18 11 11 8 24 14 3 18 7 12 12 12 19 31 34 39 35 20 25 42 58 65 70 72 67 65 62 58 54 47 38 29 19 13 9 9 15 20 21 21 26 31 36
10 12 12 18 14 4 24 4 4 8 12 13 13 16 26 30 34 26 13 23 39 53 60 61 62 65 62 58 50 48 40 32 23 13 7 5 7 13 13 16 20 25 32 37
5 5 5 5 10 9 11 11 15 24 31 24 18 17 26 29 13 17 20 27 37 43 46 48 57 61 62 56 47 39 31 23 15 8 3 13 12 9 12 18 23 29 34 39
6 13 10 8 8 16 10 5 14 22 27 34 36 26 24 28 25 17 15 30 35 36 42 51 56 59 57 48 35 30 25 18 13 21 15 9 9 10 15 21 26 30 34 38
14 12 9 7 5 6 4 12 23 25 27 29 35 42 39 40 35 28 24 26 33 44 56 58 57 50 39 38 37 29 24 28 20 17 17 10 8 14 19 22 23 26 29 33
Wind_Direction_500mb
188 177 189 189 198 238 113 161 170 125 39 164 238 265 256 253 221 222 234 239 241 234 237 231 232 223 212 215 218 225 240 241 236 227 226 228 230 230 232 233 233 228 238 238
116 217 191 193 208 129 139 143 169 68 84 106 306 266 260 258 255 238 232 239 243 239 226 223 217 224 224 220 222 221 227 243 248 243 237 235 235 236 240 238 232 230 234 240
165 191 208 174 140 160 189 173 151 116 162 192 308 273 239 248 238 245 243 243 245 236 229 214 220 230 226 225 225 226 228 228 244 251 250 230 230 235 237 237 237 237 240 244
231 183 154 147 167 162 192 141 112 135 145 192 189 271 312 251 218 222 240 242 240 237 223 192 197 211 229 233 233 230 230 229 227 243 248 246 231 231 238 238 241 239 238 244
175 163 150 173 191 176 207 128 130 123 118 78 176 24 261 7 234 236 240 241 241 231 230 233 231 230 240 246 242 240 238 235 229 225 244 248 247 234 236 241 241 245 244 243
63 329 144 135 42 145 137 96 86 109 140 264 190 170 244 201 210 219 97 200 199 209 219 233 240 241 245 249 249 243 240 238 234 222 234 245 246 236 234 239 245 244 244 243
116 152 58 129 80 85 159 149 115 120 120 221 324 173 234 266 247 211 199 191 201 222 227 228 229 232 242 248 247 244 239 234 230 223 219 237 240 238 240 240 244 248 248 245
160 188 158 196 179 175 201 179 159 177 184 204 342 233 255 220 198 181 200 202 197 206 211 217 220 218 221 224 233 230 232 229 225 224 220 221 238 242 242 239 243 248 253 255
172 212 89 131 170 135 215 239 107 101 2 72 210 274 300 195 235 222 214 198 196 209 217 216 211 212 215 218 235 229 226 224 221 217 218 218 218 228 235 234 234 241 249 252
109 106 40 38 351 338 129 157 65 310 135 218 248 235 228 162 238 229 217 214 211 204 212 216 218 220 222 224 227 231 225 218 213 216 220 215 214 222 229 233 235 239 247 253
234 113 109 131 220 167 171 200 209 155 175 178 245 250 193 191 220 208 203 205 206 214 218 217 221 222 223 222 222 223 223 220 211 201 197 202 208 212 216 220 231 236 243 248
175 113 155 200 205 231 223 207 179 151 252 264 136 260 151 130 114 161 183 197 211 216 214 216 221 219 213 212 211 211 210 205 201 191 180 173 179 188 198 206 214 222 228 238
169 199 92 153 224 104 218 230 243 275 46 206 155 258 202 75 63 58 168 178 190 204 206 213 214 210 207 205 205 202 193 189 182 179 179 176 179 186 190 195 203 210 216 221
165 180 194 204 136 151 189 186 214 200 182 233 229 258 219 161 168 174 180 197 202 211 216 216 209 205 203 200 197 191 185 182 178 174 171 168 166 166 167 166 169 171 176 186
153 192 205 255 336 83 167 180 201 215 229 191 244 249 263 233 207 206 209 200 212 217 219 219 211 208 201 197 192 188 186 184 181 177 169 165 162 161 159 156 151 147 147 156
137 187 142 40 92 313 296 235 213 223 238 243 260 268 262 271 274 198 202 206 213 223 225 217 212 211 205 200 197 192 191 186 181 177 169 164 162 160 159 154 148 139 349 330
104 130 86 228 145 89 308 243 192 226 237 222 238 247 271 272 245 212 214 219 226 233 228 216 216 213 207 202 201 195 192 188 183 174 169 166 163 161 156 150 144 120 355 340
110 107 92 163 74 192 244 144 207 229 238 237 257 264 262 268 273 268 254 237 236 237 231 226 223 215 210 206 202 196 189 182 181 175 172 169 167 164 155 142 104 10 343 333
134 112 121 151 187 310 293 203 176 171 249 242 240 257 269 278 287 265 261 260 255 252 247 234 224 217 207 206 200 192 186 184 180 177 173 169 164 158 146 114 359 341 337 333
151 111 136 156 192 213 282 342 349 122 254 357 37 28 0 350 259 277 289 272 251 244 235 225 221 215 207 199 195 190 186 182 178 172 167 158 146 120 32 358 347 339 332 326
151 165 207 210 238 277 189 251 114 140 225 92 43 22 357 5 304 304 305 274 240 232 221 214 210 207 198 192 188 184 182 177 169 160 148 123 65 13 352 343 326 315 319 327
170 174 189 201 225 257 168 126 165 171 125 93 50 29 22 355 340 331 301 236 213 206 198 205 204 197 188 185 183 179 174 164 153 141 119 82 17 341 314 300 315 323 328 328
169 181 171 187 209 149 173 101 312 251 264 228 261 291 315 337 350 327 281 207 193 195 197 198 197 184 178 175 173 171 163 148 136 124 117 42 309 274 297 317 325 329 330 330
286 166 164 93 234 199 230 269 273 277 265 278 273 279 293 299 311 331 270 233 218 210 201 194 186 177 171 167 159 155 152 152 155 129 134 231 241 285 315 323 327 328 327 329
184 135 171 267 276 288 306 356 323 294 283 269 279 282 281 282 266 255 257 244 232 220 203 186 180 172 163 161 167 172 173 164 158 199 199 235 260 303 319 319 321 328 330 328
188 178 171 213 152 132 87 9 349 336 322 304 288 282 272 258 255 245 230 223 219 204 188 178 172 168 172 177 182 170 159 187 186 217 215 224 268 291 303 314 322 322 325 333
Wind_Speed_850mb
26 10 14 19 18 7 3 16 12 10 4 2 13 17 19 30 26 30 30 28 33 33 35 37 40 45 49 50 50 50 51 48 50 58 60 61 60 58 58 57 49 46 42 37
8 14 18 18 16 10 8 9 5 8 10 6 11 17 19 24 29 44 38 37 40 33 33 33 40 45 48 57 58 57 57 57 58 56 61 62 62 63 63 58 55 53 48 45
14 15 23 16 10 15 10 12 7 10 8 4 5 13 19 22 52 51 49 47 43 40 37 45 44 41 43 47 53 55 60 61 65 63 59 59 57 61 61 65 65 64 60 58
13 6 19 15 12 10 12 10 14 16 9 5 6 9 9 11 14 18 41 46 48 45 33 30 34 35 42 47 51 55 61 64 66 66 69 67 68 67 69 66 65 64 59 61
6 14 24 17 17 21 4 15 14 9 6 7 6 2 12 7 9 15 36 46 42 40 45 49 54 53 57 57 57 62 64 70 71 68 74 73 65 63 56 54 60 64 60 59
7 6 7 7 10 15 16 15 15 8 5 3 15 12 9 12 15 8 3 21 32 35 38 41 42 42 46 47 45 47 55 61 62 70 67 71 63 60 59 60 54 52 51 51
10 4 6 10 16 7 9 12 4 2 1 10 8 9 20 8 7 10 14 23 28 28 28 26 24 23 25 25 27 32 38 46 51 57 70 57 51 51 54 57 61 50 44 43
14 9 16 10 9 17 18 16 11 15 10 6 9 15 13 24 8 7 12 30 29 26 27 25 22 19 17 15 16 15 20 28 35 39 50 59 49 44 43 48 54 51 44 39
18 5 12 13 1 18 10 10 2 13 5 8 11 13 15 12 13 18 24 24 28 27 28 28 24 22 19 16 14 11 13 19 24 32 40 44 42 36 39 41 45 47 43 41
1 10 4 4 5 5 6 7 6 3 9 9 12 10 14 6 19 16 18 36 30 29 28 26 26 24 23 20 17 16 16 18 21 25 29 37 35 31 36 41 42 39 38 38
4 11 3 8 13 17 4 9 9 10 9 11 3 12 7 11 13 21 26 37 35 35 32 30 31 27 22 20 19 19 19 19 19 20 22 23 24 24 26 28 31 34 35 35
10 9 9 15 2 7 17 14 16 10 8 3 5 18 10 14 8 5 32 41 40 40 38 38 33 28 26 24 23 24 24 21 19 19 22 24 23 23 22 24 24 25 25 27
16 7 7 5 4 5 7 4 7 10 6 11 11 27 8 13 11 6 19 29 33 33 35 33 32 30 29 28 28 26 24 23 23 24 23 22 22 22 21 20 20 19 18 17
31 7 17 25 6 19 11 13 14 12 7 41 20 48 5 8 12 13 21 30 31 34 36 38 37 39 38 35 31 28 29 28 28 28 26 25 25 24 22 19 17 15 12 10
12 12 9 11 8 6 8 13 26 35 41 14 44 35 51 14 18 33 35 33 36 42 48 50 49 47 42 41 40 39 36 35 33 32 30 29 28 25 22 19 15 11 7 3
3 3 2 8 6 6 4 20 26 31 36 26 39 35 60 7 26 40 45 50 51 56 59 56 53 53 51 49 46 43 40 35 33 34 31 29 26 24 20 15 10 5 1 5
8 10 6 4 14 9 13 42 19 18 23 20 31 55 44 27 17 33 47 57 62 63 63 62 65 61 57 56 51 46 44 40 40 34 31 28 23 18 14 10 6 2 3 7
9 9 6 5 10 8 14 16 22 34 34 33 37 44 53 49 32 37 63 70 67 65 63 67 72 70 65 60 57 52 47 45 39 35 31 27 22 17 12 7 3 5 9 15
7 8 7 7 10 15 33 8 13 16 32 22 37 46 64 64 47 73 72 61 71 79 79 79 78 76 70 67 56 51 50 46 40 34 29 24 19 13 8 3 5 12 18 23
12 7 6 7 8 16 5 3 10 10 23 7 23 17 23 32 11 34 40 52 64 67 64 69 74 75 71 63 58 57 52 44 37 31 26 20 13 6 5 11 19 27 32 34
9 8 25 18 10 16 8 9 8 13 8 4 20 23 30 6 20 61 52 44 49 62 65 69 72 72 66 62 61 56 48 41 35 28 19 11 8 11 15 19 22 25 29 33
21 18 11 11 8 24 14 3 18 7 12 12 12 19 31 34 39 35 20 25 42 58 65 70 72 67 65 62 58 54 47 38 29 19 13 9 9 15 20 21 21 26 31 36
10 12 12 18 14 4 24 4 4 8 12 13 13 16 26 30 34 26 13 23 39 53 60 61 62 65 62 58 50 48 40 32 23 13 7 5 7 13 13 16 20 25 32 37
5 5 5 5 10 9 11 11 15 24 31 24 18 17 26 29 13 17 20 27 37 43 46 48 57 61 62 56 47 39 31 23 15 8 3 13 12 9 12 18 23 29 34 39
6 13 10 8 8 16 10 5 14 22 27 34 36 26 24 28 25 17 15 30 35 36 42 51 56 59 57 48 35 30 25 18 13 21 15 9 9 10 15 21 26 30 34 38
14 12 9 7 5 6 4 12 23 25 27 29 35 42 39 40 35 28 24 26 33 44 56 58 57 50 39 38 37 29 24 28 20 17 17 10 8 14 19 22 23 26 29 33
Wind_Direction_850mb
188 177 189 189 198 238 113 161 170 125 39 164 238 265 256 253 221 222 234 239 241 234 237 231 232 223 212 215 218 225 240 241 236 227 226 228 230 230 232 233 233 228 238 238
116 217 191 193 208 129 139 143 169 68 84 106 306 266 260 258 255 238 232 239 243 239 226 223 217 224 224 220 222 221 227 243 248 243 237 235 235 236 240 238 232 230 234 240
165 191 208 174 140 160 189 173 151 116 162 192 308 273 239 248 238 245 243 243 245 236 229 214 220 230 226 225 225 226 228 228 244 251 250 230 230 235 237 237 237 237 240 244
231 183 154 147 167 162 192 141 112 135 145 192 189 271 312 251 218 222 240 242 240 237 223 192 197 211 229 233 233 230 230 229 227 243 248 246 231 231 238 238 241 239 238 244
175 163 150 173 191 176 207 128 130 123 118 78 176 24 261 7 234 236 240 241 241 231 230 233 231 230 240 246 242 240 238 235 229 225 244 248 247 234 236 241 241 245 244 243
63 329 144 135 42 145 137 96 86 109 140 264 190 170 244 201 210 219 97 200 199 209 219 233 240 241 245 249 249 243 240 238 234 222 234 245 246 236 234 239 245 244 244 243
116 152 58 129 80 85 159 149 115 120 120 221 324 173 234 266 247 211 199 191 201 222 227 228 229 232 242 248 247 244 239 234 230 223 219 237 240 238 240 240 244 248 248 245
160 188 158 196 179 175 201 179 159 177 184 204 342 233 255 220 198 181 200 202 197 206 211 217 220 218 221 224 233 230 232 229 225 224 220 221 238 242 242 239 243 248 253 255
172 212 89 131 170 135 215 239 107 101 2 72 210 274 300 195 235 222 214 198 196 209 217 216 211 212 215 218 235 229 226 224 221 217 218 218 218 228 235 234 234 241 249 252
109 106 40 38 351 338 129 157 65 310 135 218 248 235 228 162 238 229 217 214 211 204 212 216 218 220 222 224 227 231 225 218 213 216 220 215 214 222 229 233 235 239 247 253
234 113 109 131 220 167 171 200 209 155 175 178 245 250 193 191 220 208 203 205 206 214 218 217 221 222 223 222 222 223 223 220 211 201 197 202 208 212 216 220 231 236 243 248
175 113 155 200 205 231 223 207 179 151 252 264 136 260 151 130 114 161 183 197 211 216 214 216 221 219 213 212 211 211 210 205 201 191 180 173 179 188 198 206 214 222 228 238
169 199 92 153 224 104 218 230 243 275 46 206 155 258 202 75 63 58 168 178 190 204 206 213 214 210 207 205 205 202 193 189 182 179 179 176 179 186 190 195 203 210 216 221
165 180 194 204 136 151 189 186 214 200 182 233 229 258 219 161 168 174 180 197 202 211 216 216 209 205 203 200 197 191 185 182 178 174 171 168 166 166 167 166 169 171 176 186
153 192 205 255 336 83 167 180 201 215 229 191 244 249 263 233 207 206 209 200 212 217 219 219 211 208 201 197 192 188 186 184 181 177 169 165 162 161 159 156 151 147 147 156
137 187 142 40 92 313 296 235 213 223 238 243 260 268 262 271 274 198 202 206 213 223 225 217 212 211 205 200 197 192 191 186 181 177 169 164 162 160 159 154 148 139 349 330
104 130 86 228 145 89 308 243 192 226 237 222 238 247 271 272 245 212 214 219 226 233 228 216 216 213 207 202 201 195 192 188 183 174 169 166 163 161 156 150 144 120 355 340
110 107 92 163 74 192 244 144 207 229 238 237 257 264 262 268 273 268 254 237 236 237 231 226 223 215 210 206 202 196 189 182 181 175 172 169 167 164 155 142 104 10 343 333
134 112 121 151 187 310 293 203 176 171 249 242 240 257 269 278 287 265 261 260 255 252 247 234 224 217 207 206 200 192 186 184 180 177 173 169 164 158 146 114 359 341 337 333
151 111 136 156 192 213 282 342 349 122 254 357 37 28 0 350 259 277 289 272 251 244 235 225 221 215 207 199 195 190 186 182 178 172 167 158 146 120 32 358 347 339 332 326
151 165 207 210 238 277 189 251 114 140 225 92 43 22 357 5 304 304 305 274 240 232 221 214 210 207 198 192 188 184 182 177 169 160 148 123 65 13 352 343 326 315 319 327
170 174 189 201 225 257 168 126 165 171 125 93 50 29 22 355 340 331 301 236 213 206 198 205 204 197 188 185 183 179 174 164 153 141 119 82 17 341 314 300 315 323 328 328
169 181 171 187 209 149 173 101 312 251 264 228 261 291 315 337 350 327 281 207 193 195 197 198 197 184 178 175 173 171 163 148 136 124 117 42 309 274 297 317 325 329 330 330
286 166 164 93 234 199 230 269 273 277 265 278 273 279 293 299 311 331 270 233 218 210 201 194 186 177 171 167 159 155 152 152 155 129 134 231 241 285 315 323 327 328 327 329
184 135 171 267 276 288 306 356 323 294 283 269 279 282 281 282 266 255 257 244 232 220 203 186 180 172 163 161 167 172 173 164 158 199 199 235 260 303 319 319 321 328 330 328
188 178 171 213 152 132 87 9 349 336 322 304 288 282 272 258 255 245 230 223 219 204 188 178 172 168 172 177 182 170 159 187 186 217 215 224 268 291 303 314 322 322 325 333